Location: Choisy
(48.7685°N, 2.4187°E)
Time: 10:30:55
(UTC+00:00)

ATLAS 3B R/B - Pass Details

Date: 09 December 2023
Orbit: 947 x 1247 km, 63.8° (Epoch: 10 February)

Event Time Altitude Azimuth Distance (km) Brightness Sun altitude
Exits shadow 01:54:45 14° 55° (NE) 2,787 5.2 -53.2°
Drops below altitude 10° 01:55:46 10° 51° (NE) 3,108 5.5 -53.0°
Sets 01:58:47 0° 44° (NE) 4,113 6.3 -52.6°
